Kosmos-1794

operational
NORAD ID: 17138 Int'l Des: 1986-092 Owner: UNKS Country: SU
LEOCIRCULAR

About Kosmos-1794

Description loading...

Live Position

Loading 3D Globe...

Upcoming Passes

Altitude History

Altitude vs Time

uPlot chart will show altitude changes over time

Two-Line Element Set

1 17138U 86092A 26061.62659124 .00000000 00000-0 10637-3 0 9995
2 17138 74.0105 252.2764 0020755 108.2374 319.7585 12.45668972786033
Epoch: Mar 2, 2026 • Age: 41 hours

Current Status

Altitude 1524.9 km
Velocity 7.10 km/s
Sub-Earth Point -74.05°S, 97.96°E
Launch Date Nov 21, 1986
Age 39.2 years
Type other

Technical Details

Classification Payload
Mass 60.00 kg
Dry Mass 60.00 kg
Total Mass 60.00 kg
Length 0.80 m
Diameter 0.80 m
Span 0.80 m
Shape Poly
Manufacturer NPOPM
Bus Type Strela-1 11F625
Phase Status In Orbit
Owner/State UNKS/SU

Large Constellations

Loading constellations...